User: anonymous   Login
Location: Nairn
(57.5833°N, 3.8667°W)
Time: 09:12:47
(UTC+00:00)
Language:

Cosmos 44 Rocket - Orbit

View from above orbital plane
View from above orbital plane
View from above satellite
View from above satellite

Ground track
Ground track

The orbit data is extracted from the following two-line orbital elements,

1   877U 64053B   20293.81725826 -.00000076 +00000-0 +94780-5 0  9992
2   877 065.0780 325.5532 0070952 337.4446 022.3537 14.59402018979639
Epoch (UTC): 19 October 2020 19:36:51
Eccentricity: 0.0070952
inclination: 65.0780°
perigee height: 645 km
apogee height: 745 km
right ascension of ascending node: 325.5532°
argument of perigee: 337.4446°
revolutions per day: 14.59402018
mean anomaly at epoch: 22.3537°
orbit number at epoch: 97963

The dashed part of the orbit path shows where the satellite is in the earth's shadow,  

DLR